Weather Roundup
Issued by NWS Chicago, IL

Home | Current Version | Previous Version | Graphics & Text | Print | Product List | Glossary On
Versions: 1 2 3 4 5 6 7 8 9 10 11 12 13 14 15 16 17 18 19 20 21 22 23 24 25 26 27 28 29 30 31 32 33 34 35 36 37 38 39 40 41 42 43 44 45 46 47 48 49 50
000
NZUS59 KLOT 252204
HRRLOT

CHICAGO AREA WEATHER ROUNDUP
NATIONAL WEATHER SERVICE CHICAGO/ROMEOVILLE IL
400 PM CST SUN FEB 25 2018

NOTE: "FAIR" INDICATES FEW OR NO CLOUDS BELOW 12,000 FEET WITH NO
SIGNIFICANT WEATHER AND/OR OBSTRUCTIONS TO VISIBILITY.

* THESE STATIONS ARE NOT UNDER NWS QUALITY CONTROL. THEY ALSO MAY NOT
  REPORT WEATHER SUCH AS PRECIPITATION OR FOG.

ILZ005-006-012>014-019>023-252300-
NORTHEAST ILLINOIS

CITY           SKY/WX    TMP DP  RH WIND       PRES   REMARKS
OHARE            N/A     44  24  45 W25G39    29.96R
MIDWAY           N/A     45  23  42 W23G31    29.98R
AURORA           N/A     44  27  51 SW17      29.98R
LANSING*         N/A     44  28  53 SW17G26   30.00R
JOLIET*          N/A     46  25  44 SW16G23   30.00R
WAUKEGAN         N/A     43  22  43 W18G35    29.92R
DUPAGE AIRPORT   N/A     44  24  45 W23G31    29.97R
WHEELING         N/A     45  23  42 SW15G28   29.96R
KANKAKEE*        N/A     45  26  49 W21G26    30.04R
MORRIS*          N/A     45  25  46 W20G25    30.00R
LEWIS AIRPORT*   N/A     44  27  52 W22       30.00R
NORTHERLY ISL    N/A     44  20  38 SW15        N/A
$$

WIZ051-052-058>065-066-070>072-252300-
SOUTHEAST WISCONSIN

CITY           SKY/WX    TMP DP  RH WIND       PRES   REMARKS
MILWAUKEE        N/A     42  22  44 W23G36    29.89R
KENOSHA*         N/A     42  24  49 W29G38    29.91R
RACINE*          N/A     42  22  44 W25G39    29.91R
BURLINGTON       N/A     40  26  58 SW18G29   29.92R
WAUKESHA       SUNNY     37  19  48 SW17G29   29.89R
WEST BEND        N/A     37  23  56 SW16G29   29.83R
$$

INZ001>003-010>013-019-020-252300-
NORTHWEST INDIANA

CITY           SKY/WX    TMP DP  RH WIND       PRES   REMARKS
GARY*          MOSUNNY   46  18  31 W17G35    29.99R
MICHIGAN CITY* NOT AVBL
RENSSELAER*    NOT AVBL
VALPARAISO       N/A     45  25  45 W22G28    30.00R
$$

LMZ740>746-252300-
SOUTHERN LAKE MICHIGAN

STATION/POSITION TIME  SKY/WX   TEMP WIND        PRES    VSBY
                                AIR  DIR/SP/G
                 (UTC)          (F)  (DEG/KT/KT) (MB)    (MI)
HARRISON CRIB    2140            44  240/ 23/ 30   N/A
BURNHAM HARBOR   2200            44  230/ 11/ 20   N/A
CALUMET HARBOR   2130            44  230/ 13/ 20 1014.5R
BURNS HARBOR     2140            42  240/ 18/ 25 1016.3R
MICHIGAN CITY    2140            40  230/ 22/ 24   N/A
$$

ABBREVIATIONS USED IN REMARKS
   TC - TEMPERATURE IN CELSIUS
  WCI - WIND CHILL INDEX
   HX - HEAT INDEX
  VSB - VISIBILITY
$$




USA.gov is the U.S. government's official web portal to all federal, state and local government web resources and services.